Theta_e
321 322 323 324 325 326 327 328 329 328 328 328 329 329 327 326 325 321 314 319 325 331 329 320 317 317 316 313 318 315 302 299 306 303 302 306 305 308 309 310 312 316 315 320 328
319 320 322 323 324 325 326 327 327 328 328 328 328 328 327 326 320 315 325 331 331 329 320 314 311 314 307 308 312 308 301 303 306 308 304 306 306 307 305 307 310 315 323 327 326
318 319 320 321 323 325 325 326 326 327 327 327 327 327 326 324 313 313 328 332 330 328 321 318 316 312 305 304 308 307 303 309 307 311 310 308 305 307 306 303 308 312 319 323 323
317 318 319 320 322 322 324 325 325 326 327 326 326 327 325 321 294 316 327 332 330 323 320 315 312 305 302 300 305 301 306 307 311 309 309 306 308 305 305 305 311 314 323 323 322
316 317 318 319 320 321 322 325 325 325 325 326 326 326 319 310 310 320 326 329 324 320 316 312 308 305 300 301 302 300 302 307 310 310 308 309 306 306 307 309 310 318 321 321 321
315 315 316 317 318 319 321 323 323 324 324 325 325 324 313 303 319 321 324 323 320 318 314 312 309 309 304 302 300 302 303 305 306 309 309 307 306 309 308 311 310 312 317 319 321
314 314 315 315 317 318 320 322 323 323 324 325 325 320 310 306 319 321 323 320 319 318 312 314 313 309 305 301 307 305 300 303 303 305 308 308 303 306 310 312 311 309 308 313 319
312 313 314 314 315 317 319 321 322 323 323 324 324 315 303 317 319 320 320 318 320 320 317 317 319 313 308 307 305 300 298 293 300 303 307 305 295 304 308 309 309 310 307 308 310
311 312 314 313 314 316 317 319 320 322 322 323 314 307 299 317 312 317 320 316 317 317 317 321 316 308 307 298 294 296 288 291 294 300 300 302 297 305 306 305 303 305 310 310 310
311 311 312 313 314 314 316 317 319 319 319 319 313 302 303 303 312 316 319 319 314 313 311 310 306 299 298 294 286 290 290 292 290 295 296 298 299 303 304 303 302 302 306 308 309
310 311 311 312 313 313 311 308 305 303 308 304 302 298 301 308 315 313 317 314 313 309 298 304 296 294 295 297 295 292 292 291 293 298 297 297 296 299 300 300 300 300 301 305 307
310 310 311 311 311 313 309 301 303 307 298 306 304 301 305 309 304 310 316 306 305 298 301 298 293 297 300 299 297 295 292 290 295 298 297 294 294 299 302 302 301 301 301 302 304
308 309 310 311 312 308 302 301 311 309 297 299 305 301 301 307 302 304 311 307 301 298 298 293 295 301 299 297 295 294 292 291 292 295 295 294 292 295 299 303 304 304 303 303 304
308 309 310 311 304 302 299 305 308 309 289 291 297 300 302 306 299 309 312 306 300 296 298 296 299 298 297 295 296 291 296 295 293 291 285 292 282 290 294 296 299 302 302 303 304
307 308 309 309 298 297 300 305 308 305 275 293 296 306 303 299 300 302 312 305 297 296 297 293 295 294 294 295 297 293 297 295 293 289 286 286 284 286 293 291 294 297 299 301 305
306 307 308 305 301 301 304 306 302 284 276 288 294 294 294 296 298 303 304 306 303 297 298 295 299 298 296 299 299 297 294 293 293 288 282 286 285 283 289 292 294 295 299 301 302
306 306 305 304 296 303 305 299 281 276 288 285 288 293 292 290 293 297 297 295 292 287 288 290 293 295 298 293 296 298 291 282 281 281 279 287 285 287 290 293 293 295 295 298 301
306 306 304 303 304 304 300 288 275 281 284 291 291 292 288 291 292 294 294 291 296 292 287 287 284 292 297 294 292 294 291 280 273 276 277 284 280 285 293 295 296 295 297 299 298
305 300 299 301 304 302 292 278 279 282 287 288 289 287 287 291 291 292 292 292 294 295 287 286 285 292 295 296 297 291 289 291 282 273 276 280 284 290 293 294 293 295 296 295 297
297 295 294 302 303 297 285 282 282 290 290 290 284 288 283 287 288 289 287 294 294 297 295 290 283 290 293 295 296 295 295 286 286 274 270 278 279 282 287 290 293 293 294 295 296
295 288 294 302 300 289 280 280 285 290 293 288 285 286 288 287 288 287 287 292 296 296 296 291 287 287 292 289 290 291 290 290 288 282 277 274 278 288 291 290 291 292 295 295 296
290 278 295 300 284 284 281 285 289 288 292 292 290 287 287 289 288 288 287 291 298 297 292 294 289 284 288 288 290 294 290 290 283 281 283 280 280 289 290 291 292 293 295 296 297
284 285 295 295 278 281 284 284 287 287 288 290 289 291 291 289 285 289 289 295 297 295 293 294 287 280 283 288 290 289 291 292 291 285 282 279 282 294 292 290 290 294 294 294 294
287 280 288 289 286 282 279 281 282 288 288 290 289 291 290 288 289 288 289 292 295 296 298 297 288 285 281 284 288 287 290 291 290 285 284 283 286 290 289 288 289 292 294 293 293
287 281 282 279 281 282 283 283 280 282 287 289 286 289 288 285 288 284 289 292 294 297 295 292 286 285 287 283 288 288 288 290 288 289 285 287 286 290 293 290 290 291 291 291 292
284 281 286 283 283 281 282 280 280 282 284 282 285 287 288 285 288 285 289 289 290 293 293 293 286 287 280 283 283 284 287 288 289 290 289 289 288 295 296 292 290 290 291 292 293
291 290 284 284 283 280 280 281 283 284 287 288 287 286 287 288 292 293 295 293 292 292 292 289 287 285 282 282 280 280 284 286 288 291 290 286 291 296 293 291 291 290 293 294 293
Wind_Speed
10 9 7 7 10 12 11 11 10 9 8 5 4 3 3 3 5 3 4 3 2 4 7 8 5 6 4 3 1 3 4 3 5 7 3 1 3 3 2 6 4 4 2 5 16
11 10 9 9 7 11 12 12 11 10 9 7 5 4 3 2 3 7 6 6 2 4 5 3 6 9 3 3 1 4 3 1 4 2 4 2 3 4 3 4 3 6 6 12 13
12 11 10 9 8 7 11 11 11 10 9 9 7 6 5 1 3 6 7 12 9 2 2 3 4 3 0 2 3 3 5 3 2 3 4 5 3 3 5 2 4 9 11 10 8
13 13 12 10 9 9 8 11 12 12 11 9 8 9 8 2 6 1 2 6 9 4 3 3 2 1 3 4 4 1 3 1 2 3 4 4 6 4 2 3 2 11 16 11 12
12 11 12 11 9 9 8 9 11 12 12 10 9 9 5 4 6 4 3 7 6 4 4 4 4 4 4 3 2 2 2 2 4 3 2 3 4 3 7 5 5 10 11 12 11
12 10 9 11 9 10 9 8 8 12 13 12 11 10 3 10 6 7 8 5 2 4 4 4 4 4 3 5 4 3 1 4 2 3 2 2 3 3 6 7 1 9 10 10 12
13 11 11 9 12 11 10 8 9 10 14 13 12 6 6 13 3 7 9 5 2 2 2 4 2 0 1 1 3 2 3 4 3 3 5 4 5 10 7 8 7 7 9 11 13
15 13 12 12 12 11 10 9 9 9 14 15 12 6 7 11 11 2 6 3 3 4 2 4 4 1 0 2 3 4 4 3 5 5 6 9 10 9 6 8 11 11 9 9 11
16 14 13 13 12 11 9 8 8 11 15 14 6 5 7 5 9 10 5 7 5 1 2 3 4 1 2 5 3 1 3 5 6 9 6 8 7 7 6 7 8 9 11 9 9
17 17 16 14 13 12 10 7 6 6 9 10 4 5 8 7 7 9 6 9 5 5 4 3 3 4 2 4 8 6 4 5 5 3 7 7 9 8 6 5 8 8 9 8 8
19 18 18 17 15 15 9 3 4 4 7 5 10 3 4 10 10 15 8 8 5 4 8 5 6 16 10 8 5 5 5 7 3 9 8 9 7 12 4 5 10 10 8 9 9
22 21 20 19 18 17 10 6 6 0 6 18 15 15 4 8 10 16 12 10 9 11 7 5 15 6 9 8 8 9 6 5 5 5 4 4 7 8 11 8 8 10 12 10 7
24 22 22 20 19 13 12 16 5 4 3 3 16 18 8 8 13 23 19 9 11 13 16 9 4 14 12 10 13 9 7 4 5 5 2 1 9 9 9 12 16 12 11 8 11
24 24 23 22 14 10 13 11 3 3 8 8 6 7 13 5 6 14 18 13 7 17 13 11 9 16 13 16 10 13 7 5 2 2 5 3 9 5 6 10 7 13 14 14 11
24 25 25 25 6 13 7 7 7 1 16 11 11 12 12 8 8 12 18 9 9 9 10 9 15 14 15 11 10 8 8 8 4 2 2 0 5 6 3 5 10 10 10 13 15
24 24 24 17 9 14 8 12 6 14 10 9 11 13 20 20 7 15 17 5 3 6 16 8 7 18 9 12 12 8 7 6 4 4 10 8 8 6 7 15 9 6 6 9 9
25 24 20 12 17 9 13 11 13 23 5 10 15 19 23 19 18 13 22 24 13 10 10 5 2 2 8 9 5 12 11 2 4 5 9 8 9 15 5 8 6 6 3 5 9
26 25 21 12 9 9 13 14 20 18 16 1 12 23 29 24 21 14 20 18 18 10 8 13 11 8 5 8 10 17 13 7 9 6 3 8 11 8 11 7 2 4 8 8 8
24 11 9 12 14 11 10 19 17 14 10 13 14 19 17 21 15 19 16 23 24 20 11 14 10 2 4 4 15 8 10 8 5 3 3 6 6 7 6 8 4 6 7 8 8
11 9 12 13 12 11 11 18 7 7 14 11 18 16 20 26 16 22 13 24 24 21 6 6 4 4 7 3 3 12 8 6 4 4 4 5 5 8 4 10 10 8 8 9 7
9 7 6 13 11 8 11 10 5 5 8 18 11 9 19 17 22 21 15 13 20 25 13 6 5 2 6 10 12 5 7 6 5 6 7 2 8 9 14 8 10 5 10 10 9
6 4 7 12 12 3 9 4 14 5 9 11 7 7 12 21 23 21 26 16 26 22 24 7 4 5 11 2 2 13 13 13 9 12 6 2 9 2 9 8 7 8 9 8 8
7 3 4 12 11 10 2 8 2 11 10 10 7 7 7 16 13 13 22 24 28 24 21 13 6 5 3 1 2 9 14 14 16 3 13 11 14 12 7 6 8 14 11 9 8
5 6 4 7 8 9 6 8 11 4 5 5 11 5 7 13 7 17 17 6 17 23 13 19 7 16 15 18 9 14 23 21 17 14 17 15 21 15 8 7 5 9 12 9 9
2 3 4 7 11 15 6 5 12 9 5 3 6 16 9 9 22 7 13 5 11 24 12 14 15 11 15 1 17 20 22 23 25 24 18 25 19 26 22 11 10 9 6 9 8
6 4 2 3 6 14 15 15 15 16 9 5 8 11 14 10 15 13 20 13 16 14 20 7 10 16 9 4 2 11 16 19 25 27 24 22 20 28 25 6 9 10 10 10 12
1 2 4 10 6 10 12 10 14 20 11 15 15 9 15 19 16 18 14 9 8 16 25 14 10 7 15 7 4 8 19 27 28 26 26 25 33 27 17 9 12 8 14 16 16
Wind_Direction
251 257 261 251 247 235 221 218 211 203 213 231 244 238 241 268 302 281 256 234 142 350 344 319 325 302 353 313 124 37 54 311 330 19 332 134 88 28 151 107 55 48 84 148 134
247 250 256 252 247 240 229 218 213 206 205 212 211 220 226 263 258 249 244 168 154 351 1 332 327 341 1 304 326 101 119 222 20 36 322 217 105 144 89 100 83 70 60 114 132
248 246 247 254 255 244 238 227 210 204 201 208 198 195 202 198 289 242 352 193 173 147 257 300 330 340 254 10 243 199 181 293 39 83 22 327 50 235 130 198 201 178 165 155 152
242 242 244 240 250 252 250 233 215 205 199 205 197 185 178 191 218 303 11 182 155 147 275 224 207 145 190 216 234 211 272 276 306 69 48 20 311 354 55 161 290 170 162 157 169
243 251 237 242 241 249 252 231 218 204 199 198 195 185 129 198 238 229 82 121 131 116 224 211 180 172 183 218 277 234 246 312 78 55 106 40 319 284 302 279 56 128 152 168 179
236 238 249 231 237 241 248 238 228 218 197 198 194 177 178 220 203 174 119 117 169 163 207 208 213 218 231 242 152 304 124 249 346 208 169 158 267 27 258 284 250 142 179 186 188
235 229 228 238 234 234 233 239 229 223 201 199 197 171 224 214 89 157 135 166 193 189 191 243 291 39 189 313 290 86 44 8 308 224 207 150 296 239 231 279 275 198 202 191 204
232 225 225 223 229 230 230 228 241 217 212 195 193 203 234 201 253 320 142 173 210 216 241 285 48 47 19 252 28 108 66 93 261 196 228 120 260 254 247 242 252 248 216 221 214
224 222 221 217 217 224 225 231 248 217 217 194 167 186 234 181 191 223 172 159 148 152 64 58 71 155 60 127 58 345 169 192 277 226 219 166 241 250 247 251 258 271 248 227 232
221 218 215 212 213 212 216 213 229 229 213 196 164 142 264 196 157 164 198 140 141 129 64 106 126 153 155 141 191 168 183 241 215 259 197 210 233 253 268 305 276 277 269 234 225
222 216 211 214 207 209 199 176 194 216 224 217 176 184 301 181 156 174 168 163 139 163 167 199 171 199 181 183 195 168 185 209 246 246 212 226 219 250 253 250 270 274 260 263 262
219 217 210 209 211 206 192 212 213 61 214 235 181 199 58 160 169 177 149 161 179 186 155 166 217 183 170 195 202 237 236 247 285 278 187 264 263 245 272 249 222 246 255 238 243
215 214 211 203 208 209 197 218 42 359 266 233 184 192 199 169 186 187 173 171 182 193 190 198 184 169 193 189 205 218 213 184 232 323 290 311 267 242 249 258 255 240 246 238 216
214 209 205 200 204 201 213 199 209 340 240 208 184 185 191 223 234 181 190 174 187 197 176 223 218 193 186 206 186 214 182 202 187 117 235 62 288 277 269 267 246 244 232 231 230
216 206 203 194 171 193 192 148 122 291 223 192 158 145 163 188 144 199 175 216 179 163 173 200 178 194 210 195 172 209 170 187 175 188 8 266 312 270 252 281 267 249 240 221 224
213 203 198 201 197 208 158 156 143 221 218 152 140 162 154 208 255 148 175 176 153 167 201 210 193 190 180 184 182 151 89 45 66 86 258 199 195 213 213 229 255 261 252 218 216
204 196 191 187 201 163 169 161 206 216 144 171 163 167 170 182 214 179 185 193 185 170 197 203 206 296 150 148 144 166 139 121 203 214 234 189 196 257 277 269 223 172 137 114 121
197 189 191 201 185 176 177 200 220 202 201 150 162 177 188 168 201 200 185 192 207 192 160 182 211 182 186 172 174 184 177 161 189 203 225 145 230 250 219 235 148 211 151 121 120
194 191 187 200 179 178 198 209 207 181 162 172 164 178 187 183 171 191 202 196 189 192 175 188 224 126 167 147 153 189 200 173 110 21 65 219 298 315 253 257 229 178 135 141 139
181 178 195 181 176 181 215 222 208 194 171 180 181 177 186 183 173 183 184 198 192 193 177 197 149 199 192 127 213 174 139 192 188 164 246 263 247 230 235 228 249 221 202 169 165
162 170 177 168 168 200 218 211 198 236 185 183 198 168 196 182 192 188 188 180 189 189 203 170 115 176 135 211 170 144 185 200 156 173 194 231 250 208 211 203 208 185 162 167 171
142 170 168 148 198 207 212 165 203 257 217 205 193 173 184 183 200 192 202 188 198 181 200 186 99 166 195 17 325 202 195 189 195 214 219 183 258 241 149 160 144 166 176 182 170
153 115 169 156 202 198 215 161 263 188 227 205 209 191 168 180 189 183 199 200 191 182 189 168 177 133 143 306 317 209 206 206 228 110 204 207 247 238 199 200 190 174 194 182 160
131 161 163 181 204 213 194 199 205 273 213 279 215 224 187 185 212 183 196 186 189 196 189 166 158 204 201 214 147 196 215 215 216 227 225 222 245 241 251 192 196 193 189 179 181
113 209 178 161 190 205 220 14 206 216 211 195 265 210 228 184 201 183 185 129 176 199 188 164 215 196 222 144 188 199 206 206 211 223 214 230 224 249 237 202 203 197 169 175 183
136 136 135 99 139 196 209 223 230 210 172 216 249 198 206 236 208 186 177 172 184 188 186 195 217 211 211 149 141 216 212 205 217 227 230 241 242 242 253 178 211 206 175 187 210
86 72 108 158 166 183 213 214 223 197 216 219 229 210 233 215 226 270 199 186 175 176 187 182 192 163 227 179 105 245 208 211 217 225 218 223 231 238 252 195 207 193 186 210 216